Location: Newark
(41.8083°N, 72.2500°W)
Time: 19:45:37
(UTC+00:00)

Courier 1B - Pass Details

Date: 02 December 2021
Orbit: 962 x 1209 km, 28.3° (Epoch: 19 January)

Event Time Altitude Azimuth Distance (km) Brightness Sun altitude
Rises 20:43:03 0° 212° (SSW) 4,037 12.2 4.8°
Reaches altitude 10° 20:47:20 10° 191° (S) 3,034 10.9 4.1°
Maximum altitude 20:51:15 15° 159° (SSE) 2,627 10.0 3.5°
Drops below altitude 10° 20:55:05 10° 127° (SE) 2,943 9.8 2.9°
Sets 20:59:07 0° 105° (ESE) 3,846 10.2 2.3°
